Regional Weather Roundup
Issued by NWS San Angelo, TX

Current Version | Previous Version | Text Only | Print | Product List | Glossary On
Versions: 1 2 3 4 5 6 7 8 9 10 11 12 13 14 15 16 17 18 19 20 21 22 23 24 25 26 27 28 29 30 31 32 33 34 35 36 37 38 39 40 41 42 43 44 45 46 47 48 49 50
000
ASUS44 KSJT 021002
RWRSJT
WEST CENTRAL TEXAS REGIONAL WEATHER ROUNDUP
NATIONAL WEATHER SERVICE SAN ANGELO TX
500 AM CDT THU JUL 02 2015

NOTE: "FAIR" INDICATES FEW OR NO CLOUDS BELOW 12,000 FEET WITH NO
SIGNIFICANT WEATHER AND/OR OBSTRUCTIONS TO VISIBILITY.

TXZ049-054-064>066-071>073-076>078-098-099-113-114-127-128-139-140-
154-155-168>170-021100
...LOCATIONS ACROSS WEST CENTRAL TEXAS...

CITY           SKY/WX    TMP DP  RH WIND       PRES   REMARKS
SAN ANGELO     CLEAR     70  65  84 SW3       29.99S
ABILENE        CLEAR     72  66  81 S10       29.99R
DYESS AFB      CLEAR     71  67  86 S9        29.97R
JUNCTION       CLEAR     69  63  81 S5        30.00F
SWEETWATER     NOT AVBL
BROWNWOOD      NOT AVBL
COLEMAN        NOT AVBL
SONORA         NOT AVBL
OZONA          NOT AVBL
BRADY          NOT AVBL
$$

TEXAS PANHANDLE/OKLAHOMA PANHANDLE

CITY           SKY/WX    TMP DP  RH WIND       PRES   REMARKS
AMARILLO       CLOUDY    71  63  75 CALM      30.03S
BORGER         CLOUDY    74  63  68 W8        29.98F
CANADIAN       NOT AVBL
DALHART        CLOUDY    70  62  76 NW6       30.04F
DUMAS          NOT AVBL
GUYMON         NOT AVBL
HEREFORD       NOT AVBL
PAMPA          NOT AVBL
PERRYTON       NOT AVBL
$$

SOUTHERN PANHANDLE/SOUTH PLAINS/ROLLING PLAINS

CITY           SKY/WX    TMP DP  RH WIND       PRES   REMARKS
LUBBOCK        MOCLDY    72  63  73 SW10      30.01R
SNYDER         NOT AVBL
CHILDRESS      MOCLDY    75  65  70 SW7       29.93R
SEMINOLE       NOT AVBL
$$

PERMIAN BASIN

CITY           SKY/WX    TMP DP  RH WIND       PRES   REMARKS
MIDLAND        CLOUDY    73  66  78 S13       29.99F
ODESSA         CLOUDY    73  64  73 S13       30.00F
WINK           CLEAR     71  65  81 SE10      29.96S
$$

FAR WEST/SOUTHWEST MOUNTAINS/TRANS PECOS

CITY           SKY/WX    TMP DP  RH WIND       PRES   REMARKS
ALPINE         NOT AVBL
DRYDEN           N/A     70  64  81 VRB5      29.96F
EL PASO        PTCLDY    77  51  40 E7        29.98F
FORT STOCKTON  CLEAR     71  64  78 S14       29.97F
GUADALUPE PASS CLEAR     69  58  67 NE7       30.13F
MARFA          CLEAR    N/A N/A N/A N5        30.11F
PECOS          NOT AVBL
$$

DALLAS/FORT WORTH METROPLEX

CITY           SKY/WX    TMP DP  RH WIND       PRES   REMARKS
DFW AIRPORT    PTCLDY    76  68  76 S13       29.95S
FTW MEACHAM    CLEAR     74  68  81 S10       29.95S
DAL-EXECUTIVE  CLEAR     73  69  87 S7        29.97R
GRAND PRAIRIE  NOT AVBL
ADDISON        NOT AVBL
MESQUITE       NOT AVBL
LANCASTER      NOT AVBL
$$

NORTH CENTRAL TEXAS

CITY           SKY/WX    TMP DP  RH WIND       PRES   REMARKS
SHRMAN/DENISON NOT AVBL
GAINESVILLE    NOT AVBL
BRIDGEPORT     NOT AVBL
DENTON         CLEAR     73  68  84 S9        29.95R
WAXAHACHIE     NOT AVBL
GRANBURY       NOT AVBL
$$

WESTERN NORTH TEXAS

CITY           SKY/WX    TMP DP  RH WIND       PRES   REMARKS
WICHITA FALLS  PTCLDY    77  67  71 SW14      29.90S
VERNON         NOT AVBL
BRECKENRIDGE   NOT AVBL
COMANCHE       NOT AVBL
$$

CENTRAL AND SOUTH CENTRAL TEXAS

CITY           SKY/WX    TMP DP  RH WIND       PRES   REMARKS
AUSTIN/BERGSTM CLOUDY    70  70 100 S8        30.00S
WACO           PTCLDY    72  69  90 S9        29.99S
HILLSBORO      NOT AVBL
TEMPLE         PTCLDY    70  64  83 SE9       30.00R
KILLEEN-GRAY   CLEAR     68  67  96 S6        30.00R
FORT HOOD      NOT AVBL
GEORGETOWN     CLOUDY    72  12  10 S5        29.99S
LAGO VISTA     NOT AVBL
SAN MARCOS     CLOUDY    72  68  88 S8        30.01S
NEW BRAUNFELS  FOG       71  70  96 CALM      30.00R VSB 1/4
RANDOLPH AFB   FOG       69  69 100 CALM      30.01S VSB 3/4
SAN ANTONIO    PTCLDY    72  67  84 S6        30.02R
STINSON        CLEAR     70  68  93 CALM      30.00R
PLEASANTON     NOT AVBL
LA GRANGE      NOT AVBL
GIDDINGS       NOT AVBL
$$

EAST TEXAS

CITY           SKY/WX    TMP DP  RH WIND       PRES   REMARKS
PARIS          PTCLDY    73  64  73 S13       29.93S
CLARKSVILLE    NOT AVBL
TYLER          PTCLDY    75  67  76 SW13      29.99S
LONGVIEW       PTCLDY    77  68  73 S10       29.98S
PALESTINE      NOT AVBL
NACOGDOCHES    PTCLDY   N/A N/A N/A SW5       30.02S
$$

TEXAS HILL COUNTRY AND EDWARDS PLATEAU

CITY           SKY/WX    TMP DP  RH WIND       PRES   REMARKS
LLANO          NOT AVBL
HORSESHOE BAY  NOT AVBL
KERRVILLE      NOT AVBL
FREDERICKSBRG  NOT AVBL
ROCKSPRINGS    NOT AVBL
HONDO          CLEAR     68  66  93 SE5       30.03R
UVALDE         NOT AVBL
DEL RIO        CLEAR     72  65  78 E9        29.95F
$$

SOUTHEAST TEXAS

CITY           SKY/WX    TMP DP  RH WIND       PRES   REMARKS
COLLEGE STN    PTCLDY    71  69  93 SE5       30.02R
CALDWELL       NOT AVBL
CROCKETT       NOT AVBL
BRENHAM        NOT AVBL
HUNTSVILLE     CLOUDY    73  71  93 CALM      30.04R
CONROE         FOG       71  70  96 CALM      30.04R VSB 1/4
HOUSTON BUSH   MOCLDY    71  70  96 CALM      30.04R
HOUSTON HOBBY  MOCLDY    72  70  93 CALM      30.03R
PERLAND        CLEAR     72  70  93 NE3       30.04R
WHARTON        NOT AVBL
$$

THE UPPER TEXAS COAST

CITY           SKY/WX    TMP DP  RH WIND       PRES   REMARKS
ORANGE         NOT AVBL
PORT ARTHUR    PTCLDY    74  73  97 CALM      30.03R
GALVESTON      PTCLDY    78  76  93 E3        30.03R
ANGLETON       CLEAR     73  71  93 N3        30.01S
BAY CITY       NOT AVBL
$$

TEXAS COASTAL BEND, RIO GRANDE PLAINS DEEP SOUTH TEXAS

CITY           SKY/WX    TMP DP  RH WIND       PRES   REMARKS
VICTORIA       CLEAR     72  72 100 E3        30.00R
BEEVILLE       NOT AVBL
ROCKPORT       CLEAR     80  73  79 SE9       29.97S
PORT ARANSAS   NOT AVBL
PORT LAVACA    SUNNY     73  72  94 CALM      29.99S
CORPUS CHRISTI CLOUDY    72  70  93 CALM      29.97S
KINGSVILLE NAS CLEAR     72  71  97 CALM      29.97S
COTULLA        CLEAR     69  66  90 SE7       29.98S
LAREDO         CLEAR     72  64  75 SE6       29.97F
BROWNSVILLE    PTCLDY    72  70  93 CALM      29.96F
PORT ISABEL    PTCLDY    75  73  93 SE5       29.95F
HEBBRONVILLE   NOT AVBL
MCALLEN        MOCLDY    75  69  81 SE3       29.96F
WESLACO        NOT AVBL
FALFURRIAS     NOT AVBL
EDINBURG       NOT AVBL
$$


USA.gov is the U.S. government's official web portal to all federal, state and local government web resources and services.